Location: Neuvy Saint Sepulchre
(46.5953°N, 1.8122°E)
Time: 14:29:21
(UTC+01:00)

Envisat - Pass Details

Date: 22 October 2021
Orbit: 764 x 766 km, 98.2° (Epoch: 04 December)

Event Time Altitude Azimuth Distance (km) Brightness Sun altitude
Rises 07:31:14 0° 10° (N) 3,244 6.3 -9.1°
Reaches altitude 10° 07:33:34 10° 6° (N) 2,313 5.5 -8.7°
Maximum altitude 07:38:33 57° 289° (WNW) 896 3.1 -7.8°
Drops below altitude 10° 07:43:31 10° 211° (SSW) 2,296 5.3 -7.0°
Sets 07:45:50 0° 208° (SSW) 3,217 6.0 -6.6°
